Regional Weather Roundup
Issued by NWS Goodland, KS

Home | Current Version | Previous Version | Text Only | Print | Product List | Glossary Off
Versions: 1 2 3 4 5 6 7 8 9 10 11 12 13 14 15 16 17 18 19 20 21 22 23 24 25 26 27 28 29 30 31 32 33 34 35 36 37 38 39 40 41 42 43 44 45 46 47 48 49 50

000
ASUS43 KGLD 291459
RWRGLD

GOODLAND FORECAST AREA HOURLY WEATHER ROUNDUP
NATIONAL WEATHER SERVICE GOODLAND KS
900 AM MDT MON JUN 29 2015

...OFFICIAL OBSERVATIONS...

CITY           SKY/WX    TMP DP  RH WIND       PRES   REMARKS
GOODLAND KS    CLOUDY    73  56  54 CALM      30.15S
HILL CITY KS   SUNNY     80  50  34 CALM      30.08S
IMPERIAL NEB   SUNNY     78  59  51 E6        30.11F
MCCOOK NEB     MOSUNNY   77  59  53 MISG      30.10R
AKRON CO       MOSUNNY   76  54  46 S13       30.19S
BURLINGTON CO  LGT RAIN  68  55  63 NE7       30.18F
LIMON CO       CLOUDY    64  55  72 S6        30.26S
$$

...UNOFFICIAL OBSERVATIONS...

CITY           SKY/WX    TMP DP  RH WIND       PRES   REMARKS
COLBY KS       SUNNY     77  57  50 S5        30.14S
GOVE KS          N/A     80  32  17 MISG        N/A
NORTON KS      SUNNY     79  41  25 S3        30.07S
SHARON SPRINGS   N/A     74  58  56 NW9         N/A
KIT CARSON CO    N/A     68  55  63 MISG        N/A
$$



USA.gov is the U.S. government's official web portal to all federal, state and local government web resources and services.